Powrót do katalogu

UITMSAT

AktywnyNaukaVLEO
NORAD 67686·PAYLOAD·🇯🇵 Japan

Wystrzelony Nov 20, 1998 z Baikonur Cosmodrome

Loading…

Następne Przeloty (najbliższe 24 godziny)

TLE

ŚwieżeSource: Space-Track

Epoka: Sep 14, 2026, 04:36 UTC

1 67686U 98067YC  26257.19203161  .00194003  00000-0  84452-3 0  9991
2 67686  51.6227 196.0310 0007931 136.1816 223.9818 15.83642948 34318

Śledź UITMSAT w czasie rzeczywistym z AllMySat

Download on the App Store